Location: Byszew
(52.1813°N, 19.2693°E)
Time: 01:53:59
(UTC+00:00)

Meteor 1-14 Rocket - Pass Details

Date: 03 March 2021
Orbit: 834 x 918 km, 81.3° (Epoch: 11 April)

Event Time Altitude Azimuth Distance (km) Brightness Sun altitude
Rises 17:39:50 0° 181° (S) 3,394 7.3 -12.1°
Reaches altitude 10° 17:42:16 10° 178° (S) 2,456 6.5 -12.4°
Maximum altitude 17:47:44 65° 98° (E) 920 4.1 -13.3°
Drops below altitude 10° 17:53:14 10° 18° (NNE) 2,459 6.5 -14.1°
Sets 17:55:40 0° 15° (NNE) 3,400 7.3 -14.5°
